Home   Weather   Atlantic City   Past weeks
Flag for USA

Past Weather in Atlantic City, New Jersey, USA — Yesterday and Last 2 Weeks

Now
92 °F

Scattered clouds.


Feels Like: 104 °F
Forecast: 92 / 81 °F
Wind: 10 mph from Northwest

Location: Atlantic City International Airport

Current Time: Jul 21, 2019 at 11:04:16 am

Latest Report: Jul 21, 2019 at 9:54 am


Visibility: 10 mi

Pressure: 29.85 "Hg

Humidity: 60%

Dew Point: 76 °F

Location of Atlantic CityLocation

Past Weather in Atlantic City — Graph

°F

Atlantic City Temperature Yesterday

Maximum temperature yesterday: 98 °F (at 3:54 pm)
Minimum temperature yesterday: 82 °F (at 3:54 am)
Average temperature yesterday: 90 °F

High & Low Weather Summary for the Past Weeks

 TemperatureHumidityPressure
High98 °F (Jul 20, 3:54 pm)96% (Jul 19, 4:22 am)30.11 "Hg (Jul 19, 4:22 am)
Low62 °F (Jul 9, 4:54 am)39% (Jul 15, 2:54 pm)29.73 "Hg (Jul 12, 3:54 am)
Average80 °F73%29.93 "Hg
* Reported Jul 6 8:54 am — Jul 21 8:54 am, Atlantic City. Weather by CustomWeather, © 2019

Note: Actual official high and low records may vary slightly from our data, if they occured in-between our weather recording intervals... More about our weather records

Advertising

Atlantic City Weather History for the Previous 24 Hours

Scroll right to see more
 ConditionsComfort  
Time TempWeatherWind HumidityBarometerVisibility
8:54 am
Sun, Jul 21
89 °FSunny.10 mph68%29.87 "Hg10 mi
7:54 am84 °FSunny.7 mph83%29.85 "Hg7 mi
6:54 am83 °FSunny.5 mph82%29.83 "Hg7 mi
5:54 am82 °FSunny.5 mph85%29.80 "Hg6 mi
4:54 am83 °FClear.5 mph85%29.81 "Hg7 mi
3:54 am83 °FClear.7 mph85%29.82 "Hg8 mi
2:54 am84 °FClear.7 mph83%29.83 "Hg8 mi
1:54 am85 °FClear.7 mph77%29.83 "Hg9 mi
12:54 am86 °FClear.9 mph75%29.83 "Hg9 mi
11:54 pm
Sat, Jul 20
86 °FClear.6 mph75%29.84 "Hg9 mi
10:54 pm87 °FClear.6 mph72%29.85 "Hg10 mi
9:54 pm89 °FClear.5 mph65%29.85 "Hg10 mi
8:54 pm91 °FClear.6 mph61%29.85 "Hg10 mi
7:54 pm93 °FSunny.7 mph58%29.84 "Hg10 mi
6:54 pm94 °FSunny.10 mph54%29.83 "Hg10 mi
5:54 pm96 °FSunny.7 mph49%29.82 "Hg10 mi
4:54 pm97 °FSunny.12 mph45%29.82 "Hg10 mi
3:54 pm98 °FPassing clouds.6 mph45%29.82 "Hg10 mi
2:54 pm97 °FPartly sunny.7 mph46%29.83 "Hg10 mi
1:54 pm97 °FPassing clouds.N/A48%29.84 "Hg10 mi
12:54 pm96 °FSunny.9 mph52%29.87 "Hg10 mi
11:54 am94 °FSunny.12 mph54%29.89 "Hg10 mi
Weather by CustomWeather, © 2019

See weather overview